Find WHDW 19-04

NORAD ID: 67525 Int'l Des: 2026-013 Owner: ZXW Country: CN Constellation: xingwang operational
LEOCIRCULAR

Aktuelle Ansicht

3D-Globus wird geladen...

Über WHDW 19-04

Beschreibung wird geladen...

Nächste Überflüge

Passes for default location (London). Set your location on the main map for personalized predictions.

Höhenverlauf

Loading altitude history...

Zweizeiliger Elementsatz

1 67525U 26013D 26145.50497205 -.00000091 00000-0 71423-4 0 9999
2 67525 50.0087 77.0248 0001087 35.6646 324.4298 13.29327377 17038
Epoch: 25. Mai 2026 • Age: 21 hours

Aktueller Status

Höhe 1150.3 km
Geschwindigkeit 7.28 km/s
Subsatellitenpunkt 25.54°N, 143.94°W
Startdatum 19. Jan. 2026
Alter 0.3 years
Typ other

Technische Details

Klassifizierung Payload
Masse 800.00 kg
Trockenmasse 800.00 kg
Gesamtmasse 800.00 kg
Länge 3.00 m
Durchmesser 1.00 m
Spannweite 10.00 m
Form Box + 2 Pan
Hersteller YINNT
Bus-Typ Xingwang Y
Phasenstatus In Orbit
Besitzer/Staat ZXW/CN

Most Searched